Tracking 27086 objects as of 22-Mar-2023
HD Live streaming from Space Station
objects crossing your sky now

BREEZE-M DEB (TANK)

Track BREEZE-M DEB (TANK) now!
10-day predictions


NORAD ID: 28188
Int'l Code: 2004-008B
Perigee: 306.3 km
Apogee: 13,933.9 km
Inclination: 49.5 °
Period: 259.9 minutes
Semi major axis: 13491 km
RCS: 7.345 m2 (large)
Launch date: March 15, 2004
Source: Commonwealth of Independent States (former USSR) (CIS)
Launch site: TYURATAM MISSILE AND SPACE COMPLEX (TTMTR)

Note: This is SATELLITE DEBRIS
Your satellite tracking list
Your tracking list is empty




NASA's NSSDC Master Catalog

Two Line Element Set (TLE):
1 28188U 04008B   23080.13083214  .00010714  00000-0  17048-2 0  9999
2 28188  49.5109  36.1723 5050600  36.1747 349.2128  5.54028230367658
Source of the keplerian elements: AFSPC